Regional Weather Roundup
Issued by NWS Boston, MA

Home | Current Version | Previous Version | Text Only | Print | Product List | Glossary On
Versions: 1 2 3 4 5 6 7 8 9 10 11 12 13 14 15 16 17 18 19 20 21 22 23 24 25 26 27 28 29 30 31 32 33 34 35 36 37 38 39 40 41 42 43 44 45 46 47 48 49
000
ASUS41 KBOX 282110
RWRBOX

REGIONAL WEATHER ROUNDUP
NATIONAL WEATHER SERVICE TAUNTON MA
500 PM EDT TUE JUL 28 2015

NOTE:  "FAIR" INDICATES FEW OR NO CLOUDS BELOW 12,000 FEET WITH NO
SIGNIFICANT WEATHER AND/OR OBSTRUCTIONS TO VISIBILITY.  THE FOLLOWING
OBSERVATION LOCATIONS DO NOT REPORT PRESENT WEATHER...PROVINCETOWN...
SMITHFIELD...BLOCK ISLAND...KEENE...AND OXFORD.

MAZALL-282200-
EASTERN MASSACHUSETTS

CITY           SKY/WX    TMP DP  RH WIND       PRES   REMARKS
BOSTON         PTSUNNY   77  70  79 E9        29.93S
BEVERLY        MOSUNNY   83  67  58 SE5       29.92S
LAWRENCE       MOSUNNY   87  69  54 E6        29.94S HX  91
BEDFORD        PTSUNNY   86  66  51 VRB6      29.91S
BLUE HILL        N/A     84  68  58 NE6       29.94S
NORWOOD        PTSUNNY   87  70  56 CALM      29.92R HX  92
MARSHFIELD     MOSUNNY   81  70  69 E5        29.95R
PLYMOUTH       PTSUNNY   82  72  71 VRB7      29.95R
TAUNTON        PTSUNNY   77  72  84 SW7       29.94R
NEW BEDFORD    CLOUDY    74  69  85 VRB5      29.97R THUNDER
$$

MAZALL-282200-
CAPE COD AND THE ISLANDS

CITY           SKY/WX    TMP DP  RH WIND       PRES   REMARKS
FALMOUTH       PTSUNNY   77  72  83 W13       29.95R THUNDER
HYANNIS        MOSUNNY   78  72  81 S9        29.94R
CHATHAM        SUNNY     77  72  84 SW8       29.95S
PROVINCETOWN   SUNNY     81  68  65 E8        29.94S
NANTUCKET      CLOUDY    73  69  87 S8        29.96S
MARTHAS VNYRD  PTSUNNY   74  71  91 SW7       29.96R
$$

MAZALL-282200-
CENTRAL AND WESTERN MASSACHUSETTS

CITY           SKY/WX    TMP DP  RH WIND       PRES   REMARKS
WORCESTER      PTSUNNY   74  64  71 W3        29.99R
FITCHBURG      MOSUNNY   88  66  48 VRB5      29.94S HX  90
ORANGE         MOSUNNY   87  64  46 VRB3      29.94F
SPRINGFIELD    MOSUNNY   88  65  47 SE2       29.92S
WESTFIELD      SUNNY     90  64  42 VRB3      29.92F HX  91
NORTH ADAMS    SUNNY     86  64  47 CALM      29.96F
PITTSFIELD     MOSUNNY   85  62  46 NW8       29.98F
$$

RIZALL-282200-
RHODE ISLAND

CITY           SKY/WX    TMP DP  RH WIND       PRES   REMARKS
PROVIDENCE     PTSUNNY   78  66  66 E15       29.93R THUNDER
NEWPORT        PTSUNNY   79  71  76 S7        29.95R THUNDER
BLOCK ISLAND   PTSUNNY   79  72  78 SW18      29.95S
SMITHFIELD     PTSUNNY   75  73  94 N6        29.95R
WESTERLY       PTSUNNY   83  71  67 SW7       29.93F
$$

CTZALL-282200-
CONNECTICUT

CITY           SKY/WX    TMP DP  RH WIND       PRES   REMARKS
BRADLEY INTL   PTSUNNY   92  64  39 VRB5      29.91F HX  93
HARTFORD       MOSUNNY   91  61  36 NW10      29.91F HX  91
BRIDGEPORT     SUNNY     88  68  51 SW7       29.94S HX  91
DANBURY        MOSUNNY   88  63  43 N8        29.97S
GROTON         MOSUNNY   82  68  62 SW9       29.92F
NEW HAVEN      PTSUNNY   85  67  54 SW9       29.93S
CHESTER        NOT AVBL
MERIDEN        MOSUNNY   92  64  39 W7        29.93R HX  93
WILLIMANTIC    MOSUNNY   90  64  42 NW7       29.92S HX  91
OXFORD         PTSUNNY   84  64  51 NW7       30.01R
$$

MEZ002-015-021-024-NHZ003-005-008-011-012-014-VTZ005-008-282200-
NORTHERN NEW ENGLAND

CITY           SKY/WX    TMP DP  RH WIND       PRES   REMARKS
PORTLAND ME    MOSUNNY   81  63  54 SE8       29.93R
BANGOR ME      CLOUDY    71  67  87 SW6       29.91S
CONCORD NH     MOSUNNY   91  55  29 N9        29.92F
MANCHESTER NH  PTSUNNY   90  59  35 NW8       29.90F
NASHUA NH      MOSUNNY   93  61  33 N6        29.91  HX  93
PORTSMOUTH NH  PTSUNNY   82  65  56 SE7       29.91S
JAFFREY NH     SUNNY     84  60  44 CALM      29.97F
KEENE NH       MOSUNNY   84  64  51 CALM      29.94S
BURLINGTON VT  PTSUNNY   90  63  40 N5        29.93F HX  91
MT. WASHINGTON CLOUDY    57  54  88 W22G28      N/A
$$

NYZ052-076-282200-
EASTERN NEW YORK

CITY           SKY/WX    TMP DP  RH WIND       PRES   REMARKS
ALBANY         LGT RAIN  81  67  62 NE13      29.95R
NEW YORK CITY  CLOUDY    91  64  40 SE12      29.94R HX  92
$$

ANZALL-282200-
MARINE OBSERVATIONS

STATION/POSITION TIME  TEMP    WIND        PRES    VSBY  WAVE
                       AIR SEA DIR/SP/G                  HT/PER
                 (UTC) (F)     (DEG/KT/KT) (MB)    (MI)  (FT/S)
BOSTON BUOY      1950   73 73   80/  8/ 10 1013.8          2/10
BUZZARDS BAY     2000          220/ 15/ 15 1014.1F
NANTUCKET SOUND  2050   72 73  220/ 12/ 14 1013.8R         1/ 6
MASS BAY-STELLWA 2004   73 69  100/  6/  6   N/A    1 7/8  2/ 8
ISLE OF SHOALS   2000   76     130/  7/  7 1012.9F
S OF BLOCK IS    2008      73                N/A           2/11
$$

......................KEY.........................
  SKY/WX - SKY CONDITION/PRESENT WEATHER
  TMP    - TEMPERATURE IN FAHRENHEIT
  DWPT   - DEWPOINT IN FAHRENHEIT
  RH     - RELATIVE HUMIDITY IN PERCENT
  WIND   - DIRECTION AND SPEED IN MPH
  PRES   - MEAN SEA LEVEL PRESSURE IN INCHES OF HG
  WCI    - WIND CHILL INDEX
  VSB    - VISIBILITY IN MILES
  HX     - HEAT INDEX
  TC     - TEMPERATURE IN CELSIUS
  VRB    - VARIABLE WIND DIRECTION
  N/A    - NOT AVAILABLE


USA.gov is the U.S. government's official web portal to all federal, state and local government web resources and services.